Location: Martin
(32.0982°N, 93.2193°W)
Time: 16:37:03
(UTC+00:00)

ARIANE 6 FM1 Upper Stage - Pass Details

Date: 23 September 2024
Orbit: 563 x 595 km, 62.0° (Epoch: 12 October)

Event Time Altitude Azimuth Distance (km) Brightness Sun altitude
Rises 00:44:10 0° 210° (SSW) 2,752 6.5 -8.3°
Reaches altitude 10° 00:46:23 10° 210° (SSW) 1,863 5.7 -8.8°
Maximum altitude 00:50:35 90° 206° (SSW) 578 2.7 -9.7°
Drops below altitude 10° 00:54:52 10° 31° (NNE) 1,895 5.1 -10.6°
Sets 00:57:08 0° 32° (NNE) 2,803 6.0 -11.1°
